Regional Weather Roundup
Issued by NWS

Home | Current Version | Previous Version | Graphics & Text | Print | Product List | Glossary On
Versions: 1 2 3 4 5 6 7 8 9 10 11 12 13 14 15 16 17 18 19 20 21 22 23 24 25 26 27 28
000
ASUS45 KSLC 292210
RWRUT

UTAH REGIONAL WEATHER ROUNDUP
NATIONAL WEATHER SERVICE SALT LAKE CITY UT
400 PM MDT SAT APR 29 2017

UTZ001>011-023>025-292300-

NORTHERN UTAH

CITY           SKY/WX    TMP DP  RH WIND       PRES   REMARKS
BRIGHAM CITY   SUNNY     54  24  30 SE7       30.21F
HILL AFB       MOSUNNY   53  19  27 N9        30.20S
LOGAN          PTSUNNY   53  26  35 SE7       30.20F
OGDEN          PTSUNNY   51  24  34 VRB3G23   30.20S
SALT LAKE CITY PTSUNNY   55  27  34 NW16      30.19S
TOOELE VALLEY  SUNNY     52  28  40 NW7       30.22S
WENDOVER       MOSUNNY   57  26  30 E7G20     30.20F
HEBER CITY     SUNNY     50  19  29 N18G28    30.15S
WEST JORDAN    MOSUNNY   54  39  55 NW18G25   30.19S

$$

UTZ011>015-024>027-292300-

CENTRAL/NORTHEAST UTAH

CITY           SKY/WX    TMP DP  RH WIND       PRES   REMARKS
PROVO AIRPORT  SUNNY     55  26  32 NW25G31   30.15S
MOAB/CANYONLAN CLOUDY    55  19  24 NW14      30.03S
DELTA          MOSUNNY   55  21  26 N13G24    30.15S
PRICE          CLOUDY    52  19  27 NW10G18   30.07R
ROOSEVELT      MOSUNNY   54  19  26 E17G25    30.13S
VERNAL         PTSUNNY   47  16  29 NE21G32   30.15S

$$

UTZ013>016-019>022-027-292300-

SOUTHERN UTAH

CITY           SKY/WX    TMP DP  RH WIND       PRES   REMARKS
BRYCE CANYON   MOSUNNY   48  13  24 NE14G23   30.11S
CEDAR CITY     PTSUNNY   55  21  26 N23G30    30.14S
MILFORD        SUNNY     58  24  27 N26G35    30.15R
ST GEORGE      CLEAR     69  18  14 N13       30.05R
HANKSVILLE     PTSUNNY   59  14  17 NE17      30.05S
BLANDING       PTSUNNY   53  19  26 N13G22    30.06S

$$

REGIONAL REPORTS     COLORADO/ARIZONA

CITY           SKY/WX    TMP DP  RH WIND       PRES   REMARKS
CRAIG, CO      CLOUDY    47  17  30 E7        30.07F
GRAND JUNCTION CLOUDY    53  21  28 N12G23    30.02S
RIFLE, CO      CLOUDY    47  19  33 S6        30.03F
MONTROSE, CO   CLOUDY    43  35  73 E10       30.02S
CORTEZ, CO     CLOUDY    47  30  51 SW6       29.95S
COLORADO CITY    N/A     63  18  17 NW14G30   30.09S
PAGE, AZ       MOSUNNY   63  16  16 VRB7      30.00S
GRAND CANYON   PTSUNNY   54  13  19 NE15G22   30.07R
KINGMAN, AZ    SUNNY     69  21  16 N24G33    30.05S
FLAGSTAFF, AZ  PTSUNNY   51   8  17 N8G24     30.04R

$$

REGIONAL REPORTS    NEVADA/IDAHO/WYOMING

CITY           SKY/WX    TMP DP  RH WIND       PRES   REMARKS
LAS VEGAS, NV  MOSUNNY   75  11   8 NW7       30.04F
ELY, NY        SUNNY     54  15  21 N9G23     30.20F
ELKO, NV       SUNNY     56  20  24 W13       30.22F
POCATELLO, ID  MOSUNNY   55  29  36 CALM      30.21F
BURLEY, ID     MOSUNNY   57  25  29 W9        30.19F
EVANSTON, WY   PTSUNNY   37  22  54 E8        30.22F WCI  31
ROCK SPRINGS,  PTSUNNY   39  19  44 N10       30.19F WCI  32
KEMMERER, WY     N/A     36  23  60 W3        30.21F

$$




USA.gov is the U.S. government's official web portal to all federal, state and local government web resources and services.